www.pogodaiklimat.ru
ПОГОДА в Торсхавне
Время
(UTC), дата
19 8.10
20 8.10
21 8.10
22 8.10
23 8.10
00 9.10
01 9.10
02 9.10
03 9.10
04 9.10
05 9.10
06 9.10
07 9.10
08 9.10
09 9.10
10 9.10
11 9.10
12 9.10
13 9.10
14 9.10
15 9.10
16 9.10
17 9.10
18 9.10
19 9.10
20 9.10
21 9.10
22 9.10
23 9.10
00 10.10
01 10.10
02 10.10
03 10.10
04 10.10
05 10.10
06 10.10
07 10.10
08 10.10
09 10.10
10 10.10
11 10.10
12 10.10
13 10.10
14 10.10
15 10.10
16 10.10
17 10.10
18 10.10
19 10.10
20 10.10
21 10.10
22 10.10
23 10.10
00 11.10
01 11.10
02 11.10
03 11.10
04 11.10
05 11.10
06 11.10
07 11.10
08 11.10
09 11.10
10 11.10
11 11.10
12 11.10
13 11.10
14 11.10
15 11.10
16 11.10
17 11.10
18 11.10
19 11.10
20 11.10
21 11.10
22 11.10
23 11.10
00 12.10
01 12.10
02 12.10
03 12.10
04 12.10
05 12.10
06 12.10
07 12.10
08 12.10
09 12.10
10 12.10
11 12.10
12 12.10
13 12.10
14 12.10
15 12.10
16 12.10
17 12.10
18 12.10
19 12.10
20 12.10
21 12.10
22 12.10
23 12.10
00 13.10
01 13.10
02 13.10
03 13.10
04 13.10
05 13.10
06 13.10
07 13.10
08 13.10
09 13.10
10 13.10
11 13.10
12 13.10
13 13.10
14 13.10
15 13.10
16 13.10
17 13.10
18 13.10
19 13.10
20 13.10
21 13.10
22 13.10
23 13.10
00 14.10
01 14.10
02 14.10
03 14.10
04 14.10
05 14.10
06 14.10
07 14.10
08 14.10
09 14.10
10 14.10
11 14.10
12 14.10
13 14.10
14 14.10
15 14.10
16 14.10
17 14.10
18 14.10
19 14.10
20 14.10
21 14.10
22 14.10
23 14.10
00 15.10
01 15.10
02 15.10
03 15.10
04 15.10
05 15.10
06 15.10
07 15.10
08 15.10
09 15.10
10 15.10
11 15.10
12 15.10
13 15.10
14 15.10
15 15.10
17 15.10
18 15.10
Ветер
(напр.,м/с)
Видим. Явления Облачность Т
(С)
Тd
(С)
f
(%)
Тe
(С)
Тes
(С)
Комфортность P
(гПа)
Po
(гПа)
Тmin
(С)
Tmax
(С)
R
(мм)
R24
(мм)
S
(см)
СВ 2 7000 м дымка 9/9 480 м
[]
+10.1 +9.6 97 +9 +9 тепло 978.4 971.9
СВ 2 8000 м дымка 9/9 660 м
[]
+10.1 +9.4 95 +9 +9 тепло 978.5 972.0
С 2 8000 м дымка 9/9 210 м
[]
+10.2 +9.3 94 +9 +9 тепло 978.5 971.9
С 2 7000 м в посл. час морось {ливн. осадки} 9/9 90 м
[]
+9.9 +9.6 98 +8 +8 тепло 978.5 971.9
С 2 6000 м в посл. час дождь {ливн. осадки} 9/9 120 м
[]
+9.9 +9.6 98 +8 +8 тепло 978.5 972.0 0.1
С 3 6000 м слаб. ливневой дождь {морось} 9/9 120 м
[]
+9.8 +9.6 99 +8 +8 тепло 978.4 971.8 0.2
С 3 1300 м слаб. ливневой дождь 9/9 60 м
[]
+9.8 +9.7 99 +7 +7 тепло 978.4 971.8 0.7
С 4 400 м слаб. ливневой дождь 10/10 60 м
[]
+9.7 +9.7 100 +7 +7 тепло 978.2 971.6 1
С 3 500 м слаб. ливневой дождь {туман} ?/? +9.7 +9.7 100 +7 +7 тепло 978.0 971.4 2
С 3 300 м туман {ливн. осадки} 10/10 60 м
[]
+9.7 +9.6 99 +7 +7 тепло 977.9 971.3
С 3 2300 м в посл. час туман 10/10 60 м
[]
+9.7 +9.7 100 +7 +7 тепло 978.0 971.4
СЗ 4 7000 м дымка {ливн. осадки, туман} 9/9 60 м
[]
+9.6 +9.6 100 +7 +7 тепло 978.0 971.4 +9.5 +10.4 0.0
СЗ 4 2500 м слаб. ливневой дождь 9/9 30 м
[]
+9.7 +9.7 100 +7 +7 тепло 978.0 971.5
СЗ 4 4100 м в посл. час дождь {ливн. осадки} 9/9 60 м
[]
+9.7 +9.7 100 +7 +7 тепло 978.1 971.6 0.1
СЗ 4 5000 м слаб. ливневой дождь {морось} 9/9 30 м
[]
+9.7 +9.6 99 +7 +7 тепло 978.1 971.5 0.1
СЗ 4 1300 м слаб. ливневой дождь 9/9 30 м
[]
+9.7 +9.7 100 +7 +7 тепло 978.2 971.6 0.8
СЗ 4 2300 м слаб. ливневой дождь 9/9 60 м
[]
+9.7 +9.7 100 +7 +7 тепло 978.3 971.7 0.5
СЗ 4 1000 м слаб. ливневой дождь {морось} ?/? +9.7 +9.7 100 +7 +7 тепло 978.7 972.1 2
СЗ 3 1800 м слаб. ливневой дождь 10/10 90 м
[]
+9.7 +9.6 99 +7 +7 тепло 978.9 972.3 1
СЗ 3 2400 м слаб. ливневой дождь 9/9 60 м
[]
+9.6 +9.6 100 +7 +7 тепло 979.1 972.5 3
З 3 5000 м дымка {ливн. осадки} 9/9 60 м
[]
+9.4 +9.4 100 +7 +7 тепло 979.4 972.8 4
З 1 5000 м в посл. час морось {ливн. осадки, дождь} 9/9 180 м
[]
+9.5 +9.5 100 +10 +10 тепло 979.9 973.3
З 1 30 км слаб. дождь 10/10 360 м
[]
+9.6 +9.4 99 +10 +10 тепло 980.1 973.5
СЗ 1 4500 м слаб. ливневой дождь 9/9 450 м
[]
+9.4 +9.1 98 +10 +10 тепло 980.6 974.0 +9.3 +9.8 0.4
ЮЗ 1 45 км {ливн. осадки} 9/9 480 м
[]
+9.9 +8.3 90 +9 +9 тепло 980.9 974.3
ЮЗ 1 26 км 9/9 480 м
[]
+9.9 +8.2 89 +9 +9 тепло 981.4 974.8
ЮЗ 1 17 км {ливн. осадки, дымка} 9/9 800 м
[]
+9.6 +8.2 91 +9 +9 тепло 981.7 975.1 0.0
ЮЗ 1 50 км 10/10 800 м
[]
+9.8 +7.8 87 +9 +9 тепло 982.2 975.6
ЮЗ 1 16 км слаб. ливневой дождь 9/9 500 м
[]
+9.8 +7.7 87 +9 +9 тепло 982.4 975.8 0.7
ЮЗ 2 50 км в посл. час дождь {ливн. осадки} 9/9 1170 м
[]
+9.4 +7.7 89 +8 +8 тепло 983.0 976.4 0.7
Ю 2 50 км 10/10 1300 м
[]
+9.5 +7.2 86 +8 +8 тепло 983.5 976.9
ЮЗ 2 50 км 9/9 1500 м
[]
+9.2 +7.0 86 +8 +8 тепло 983.6 977.0
ЮЗ 2 50 км 10/10 1500 м
[]
+9.1 +6.8 86 +8 +8 тепло 984.1 977.5
ЮЗ 2 50 км 10/0 2000 м
[]
+9.1 +6.4 83 +8 +8 тепло 984.5 977.9
ЮЗ 2 50 км 10/10 570 м
[]
+9.0 +6.5 84 +8 +8 тепло 985.0 978.4
ЮЗ 2 50 км 9/9 570 м
[]
+9.0 +6.3 83 +7 +7 тепло 985.5 978.8 +8.9 +10.2
Ю 3 50 км 9/9 630 м
[]
+8.8 +6.0 83 +7 +7 тепло 986.3 979.7
Ю 2 50 км 9/0
[]
+8.7 +6.0 83 +7 +7 тепло 986.9 980.3
Ю 3 35 км 9/9 660 м
[]
+8.7 +6.1 84 +6 +6 тепло 987.3 980.7
Ю 3 50 км 9/9 660 м
[]
+8.8 +6.3 84 +7 +7 тепло 987.8 981.1
Ю 2 50 км 10/10 630 м
[]
+9.2 +6.3 82 +7 +7 тепло 988.2 981.6
Ю 3 50 км 9/9 660 м
[]
+9.5 +6.6 82 +7 +8 тепло 988.8 982.2
Ю 3 12 км слаб. ливневой дождь 9/9 800 м
[]
+9.1 +6.9 86 +7 +7 тепло 988.9 982.2 0.9
ЮЗ 3 45 км в посл. час морось {ливн. осадки} 9/9 750 м
[]
+8.5 +6.0 84 +6 +6 тепло 988.9 982.2
Ю 3 13 км ливневой дождь 9/9 1500 м
[]
+8.1 +5.6 84 +6 +6 тепло 989.0 982.3 1
ЮЗ 2 30 км в посл. час морось {ливн. осадки, дождь} 10/10 1380 м
[]
+8.2 +5.8 85 +7 +7 тепло 988.9 982.2
ЮЗ 2 50 км 9/9 1410 м
[]
+8.2 +5.7 84 +7 +7 тепло 988.6 981.9
Ю 2 50 км {ливн. осадки, дождь} 9/9 1470 м
[]
+8.2 +5.7 84 +7 +7 тепло 988.6 982.0 +7.8 +9.9 0.0
Ю 2 50 км 10/10 1300 м
[]
+8.4 +6.0 85 +7 +7 тепло 988.5 981.8
Ю 1 35 км в посл. час морось {ливн. осадки} 10/10 1050 м
[]
+8.3 +6.5 88 +7 +7 тепло 988.5 981.8
Ю 1 20 км слаб. дождь 9/9 800 м
[]
+8.1 +6.5 90 +8 +8 тепло 988.3 981.6 0.6
З 1 23 км в посл. час дождь {морось} 10/10 1200 м
[]
+8.0 +6.8 92 +8 +8 тепло 988.0 981.3 0.4
СВ 1 50 км 10/10 720 м
[]
+8.2 +7.2 93 +8 +8 тепло 987.9 981.3
ЮВ 1 4600 м морось {ливн. осадки, дождь} 9/9 360 м
[]
+8.2 +7.4 95 +8 +8 тепло 987.9 981.2 0.6
штиль 0 1500 м в посл. час дождь {ливн. осадки} 9/9 210 м
[]
+8.0 +7.7 98 +7 +7 тепло 988.0 981.3 1
ЮЗ 1 2000 м дымка {ливн. осадки} 10/10 150 м
[]
+8.5 +8.3 99 +9 +9 тепло 987.9 981.2
СЗ 3 2500 м ливневой дождь 9/9 60 м
[]
+8.8 +8.7 99 +6 +6 тепло 987.8 981.1 2
СЗ 3 5000 м слаб. ливневой дождь 9/9 60 м
[]
+8.6 +8.5 99 +6 +6 тепло 987.9 981.2 0.4
З 2 9000 м дымка {ливн. осадки} 9/9 120 м
[]
+8.5 +8.2 98 +6 +6 тепло 987.9 981.2
З 2 21 км {ливн. осадки, дождь} 10/10 210 м
[]
+8.5 +7.9 96 +6 +6 тепло 987.9 981.2 +7.8 +8.9 0.4
СЗ 2 20 км 10/10 210 м
[]
+8.3 +7.7 96 +6 +6 тепло 988.4 981.7
СЗ 3 30 км 10/10 480 м
[]
+8.4 +7.3 93 +6 +6 тепло 988.7 982.0
З 1 50 км 9/9 540 м
[]
+8.6 +6.8 88 +9 +9 тепло 988.8 982.2
З 1 40 км 9/9 600 м
[]
+8.8 +6.6 86 +8 +8 тепло 989.0 982.3
З 1 50 км 9/9 630 м
[]
+9.1 +6.4 83 +8 +9 тепло 989.0 982.3
ЮЗ 1 50 км 9/9 570 м
[]
+9.9 +6.6 80 +9 +10 тепло 988.6 981.9
З 1 35 км 6/6 540 м
[]
+11.1 +7.1 76 +11 +12 тепло 988.4 981.8
ЮЗ 1 35 км 9/9 600 м
[]
+10.7 +6.8 77 +10 +11 тепло 988.1 981.5
ЮЗ 1 50 км {ливн. осадки, дождь} 9/9 600 м
[]
+10.3 +7.3 82 +10 +10 тепло 988.1 981.4 0.0
З 2 5000 м слаб. ливневой дождь 9/9 450 м
[]
+9.3 +7.9 91 +8 +8 тепло 988.7 982.0 0.4
З 2 7000 м слаб. ливневой дождь 10/10 540 м
[]
+8.3 +7.1 92 +6 +6 тепло 989.8 983.1 0.9
З 3 4900 м в посл. час дождь {ливн. осадки} 9/9 210 м
[]
+8.1 +7.5 96 +6 +6 тепло 990.7 984.0 +8.0 +11.3 2
З 2 5000 м в посл. час осадки {ливн. осадки} 9/9 400 м
[]
+8.0 +7.0 93 +6 +6 тепло 991.8 985.1
З 2 30 км 9/9 400 м
[]
+7.9 +6.8 93 +6 +6 тепло 992.6 985.8
З 1 19 км {ливн. осадки, дымка} 9/9 500 м
[]
+8.0 +6.5 90 +7 +7 тепло 993.2 986.5 0.0
З 1 35 км 10/10 540 м
[]
+8.2 +6.2 87 +7 +7 тепло 993.8 987.1
З 1 50 км 9/9 480 м
[]
+7.9 +6.1 88 +8 +8 тепло 994.4 987.7
З 1 50 км {ливн. осадки, дымка} 10/10 630 м
[]
+7.9 +5.5 85 +8 +8 тепло 995.2 988.4
З 1 50 км 10/10 600 м
[]
+7.7 +5.1 84 +7 +7 тепло 995.6 988.8
ЮЗ 1 45 км 10/10 570 м
[]
+7.5 +4.9 84 +7 +7 тепло 995.9 989.2
З 1 45 км 10/10 660 м
[]
+7.4 +4.2 80 +8 +8 тепло 996.3 989.5
ЮЗ 1 30 км слаб. ливневой дождь {морось} 9/9 900 м
[]
+7.0 +4.3 83 +7 +7 тепло 996.3 989.6
ЮЗ 1 50 км в посл. час морось {ливн. осадки} 4/4 750 м
[]
+7.0 +3.6 79 +7 +7 тепло 996.4 989.6
З 1 50 км {ливн. осадки, морось} 6/6 1230 м
[]
+7.1 +3.8 80 +7 +7 тепло 996.9 990.1 +6.9 +8.3 0.0
СЗ 1 30 км 9/9 800 м
[]
+6.9 +4.4 84 +7 +7 тепло 997.3 990.5
штиль 0 35 км 6/6 1020 м
[]
+6.7 +4.0 83 +6 +6 тепло 997.8 991.0
ЮЗ 1 50 км в посл. час морось {ливн. осадки} 6/6 800 м
[]
+6.9 +4.5 85 +7 +7 тепло 998.3 991.5 0.0
ЮЗ 1 50 км в посл. час морось {ливн. осадки} 6/6 870 м
[]
+7.8 +4.3 79 +8 +9 тепло 998.8 992.0
З 1 50 км 6/6 870 м
[]
+8.3 +4.5 77 +9 +10 тепло 999.3 992.6
СЗ 1 50 км {ливн. осадки, морось} 6/6 570 м
[]
+7.5 +4.6 82 +7 +8 тепло 999.7 992.9 0.0
СЗ 3 30 км 9/9 700 м
[]
+7.7 +4.4 80 +5 +5 тепло 1000.2 993.4
З 1 30 км в посл. час морось {ливн. осадки} 9/9 1140 м
[]
+8.9 +4.5 74 +9 +10 тепло 1000.5 993.8
СЗ 2 40 км {ливн. осадки, морось} 6/6 800 м
[]
+7.8 +3.8 76 +6 +6 тепло 1000.9 994.1 0.0
СЗ 3 45 км 4/4 1500 м
[]
+7.6 +3.4 75 +5 +5 тепло 1001.0 994.2
СЗ 3 50 км 4/4 1050 м
[]
+7.4 +3.8 78 +5 +5 тепло 1001.4 994.6
СЗ 2 50 км {ливн. осадки, морось} 9/9 1050 м
[]
+7.1 +3.4 77 +6 +6 тепло 1002.0 995.2 +6.6 +9.0
Ю 1 50 км 1/1 1200 м
[]
+5.8 +2.9 82 +6 +6 тепло 1002.5 995.6
ЮВ 1 50 км 9/9 1050 м
[]
+5.3 +3.3 87 +5 +5 тепло 1003.0 996.1
Ю 1 50 км ясно +4.8 +2.9 87 +5 +5 тепло 1003.5 996.6
Ю 1 50 км ясно +3.9 +2.2 89 +4 +4 по сезону 1003.8 996.9
ЮВ 1 50 км ясно +3.6 +1.7 87 +3 +3 по сезону 1004.2 997.3
ЮВ 1 50 км ясно +3.3 +1.2 86 +2 +2 по сезону 1004.3 997.4
Ю 1 50 км 9/9 960 м
[]
+3.8 +1.8 87 +4 +4 по сезону 1004.5 997.6
Ю 1 50 км ясно +3.6 +1.3 85 +3 +3 по сезону 1004.6 997.7
ЮВ 1 50 км ясно +3.2 +1.2 87 +3 +3 по сезону 1004.7 997.8
Ю 1 50 км 1/1 1020 м
[]
+3.3 +1.6 89 +3 +3 по сезону 1004.8 997.9
Ю 1 50 км ясно +2.7 +1.1 89 +2 +2 по сезону 1004.9 997.9
ЮЗ 1 45 км 1/1 570 м
[]
+4.4 +2.6 88 +4 +4 по сезону 1005.1 998.2 +2.6 +7.1
Ю 1 13 км слаб. ливневой дождь {морось} 9/9 600 м
[]
+4.4 +3.1 91 +4 +4 по сезону 1005.5 998.6 0.5
ЮЗ 1 50 км {ливн. осадки} 4/4 630 м
[]
+5.2 +3.3 88 +5 +5 тепло 1005.6 998.7
ЮЗ 1 17 км осадки {ливн. осадки, морось} 9/9 570 м
[]
+5.8 +3.7 86 +6 +6 тепло 1005.9 999.0 0.5
ЮЗ 1 50 км {ливн. осадки} 6/6 700 м
[]
+6.1 +3.9 86 +6 +7 тепло 1006.2 999.3
З 1 35 км 9/9 570 м
[]
+8.0 +4.7 80 +8 +8 тепло 1006.4 999.6
З 2 50 км {ливн. осадки, морось} 6/6 630 м
[]
+7.3 +4.0 80 +6 +7 тепло 1006.4 999.6 0.0
СЗ 3 40 км 6/6 570 м
[]
+7.9 +4.1 77 +6 +6 тепло 1006.5 999.7
СЗ 2 45 км 6/6 660 м
[]
+7.7 +3.7 76 +6 +6 тепло 1006.3 999.5
СЗ 2 45 км 9/9 960 м
[]
+7.8 +4.3 79 +6 +6 тепло 1006.2 999.4
СЗ 2 50 км 4/4 630 м
[]
+7.5 +3.6 76 +6 +6 тепло 1006.1 999.3
СЗ 3 50 км 1/1 570 м
[]
+7.3 +4.3 81 +5 +5 тепло 1006.1 999.3
СЗ 3 50 км 6/6 630 м
[]
+7.5 +4.1 79 +5 +5 тепло 1006.4 999.5 +4.2 +8.4
СЗ 3 50 км 9/9 700 м
[]
+7.4 +3.5 76 +5 +5 тепло 1006.5 999.7
СЗ 2 50 км 4/4 600 м
[]
+7.5 +3.9 78 +5 +5 тепло 1006.7 999.8
СЗ 2 50 км 4/4 600 м
[]
+7.5 +4.1 79 +5 +5 тепло 1006.7 999.8
З 1 50 км ясно +6.1 +4.3 88 +6 +6 тепло 1006.7 999.8
ЮЗ 1 50 км 6/6 630 м
[]
+5.7 +3.9 88 +6 +6 тепло 1006.7 999.8
СЗ 2 50 км 9/9 500 м
[]
+7.3 +4.2 81 +6 +6 тепло 1006.7 999.9
Ю 1 5000 м ливневой дождь {осадки} 9/9 480 м
[]
+5.8 +4.7 93 +6 +6 тепло 1006.9 1000.1 0.6
ЮЗ 1 50 км в посл. час морось {ливн. осадки} 6/6 450 м
[]
+6.3 +4.3 87 +6 +6 тепло 1007.1 1000.2
Ю 1 50 км {ливн. осадки, осадки} 4/4 700 м
[]
+5.6 +3.9 89 +5 +5 тепло 1007.0 1000.1 0.6
З 1 50 км 6/6 450 м
[]
+6.5 +4.9 90 +6 +6 тепло 1006.8 1000.0
З 1 50 км 9/9 870 м
[]
+6.9 +5.2 89 +7 +7 тепло 1007.0 1000.1
С 2 50 км {ливн. осадки, осадки} 9/9 570 м
[]
+7.8 +4.6 80 +6 +6 тепло 1006.9 1000.1 +5.2 +7.8
С 2 50 км 9/9 840 м
[]
+8.0 +4.5 79 +6 +6 тепло 1007.2 1000.3
С 3 50 км 9/9 570 м
[]
+8.1 +4.6 79 +6 +6 тепло 1007.5 1000.7
С 2 40 км 6/6 480 м
[]
+8.2 +5.6 84 +6 +6 тепло 1007.9 1001.1
С 2 45 км 9/9 450 м
[]
+8.8 +6.1 83 +7 +8 тепло 1008.0 1001.2
С 3 50 км 9/9 480 м
[]
+8.6 +6.2 85 +6 +6 тепло 1008.1 1001.2
С 2 45 км 6/6 420 м
[]
+9.0 +6.1 82 +7 +8 тепло 1007.9 1001.1
С 3 35 км 9/9 420 м
[]
+8.9 +5.7 80 +7 +7 тепло 1007.7 1000.9
С 2 40 км 9/9 450 м
[]
+9.2 +6.2 81 +7 +8 тепло 1007.8 1001.0
С 2 50 км 1/1 500 м
[]
+9.1 +6.0 81 +8 +9 тепло 1007.9 1001.1
50 км 4/4 500 м
[]
+9.0 +5.4 78 1007.8 1001.1
СВ 2 50 км 4/4 500 м
[]
+8.4 +5.1 80 +7 +7 тепло 1008.0 1001.2
СВ 1 50 км 4/4 700 м
[]
+8.2 +5.4 82 +7 +7 тепло 1008.2 1001.4 +7.6 +9.6
С 1 50 км 9/9 500 м
[]
+8.5 +6.1 85 +8 +8 тепло 1008.3 1001.5
С 1 50 км 10/10 700 м
[]
+8.7 +6.6 87 +8 +8 тепло 1008.0 1001.2
С 2 50 км 10/10 360 м
[]
+8.9 +7.1 88 +8 +8 тепло 1007.8 1001.0
С 2 50 км 10/10 330 м
[]
+9.1 +7.5 90 +7 +7 тепло 1007.7 1000.9
С 2 45 км 10/10 570 м
[]
+9.2 +7.7 90 +7 +7 тепло 1007.3 1000.6
С 2 14 км слаб. дождь {морось} 9/9 300 м
[]
+9.1 +8.0 93 +8 +8 тепло 1007.3 1000.5 0.0
С 2 27 км {ливн. осадки, дождь} 6/6 360 м
[]
+9.2 +8.3 94 +8 +8 тепло 1007.1 1000.3 0.1
С 2 30 км 10/10 210 м
[]
+9.4 +8.4 93 +8 +8 тепло 1006.9 1000.1
С 2 30 км {ливн. осадки, дождь} 9/9 210 м
[]
+9.3 +8.4 94 +8 +8 тепло 1006.6 999.9 0.1
С 2 45 км 10/10 210 м
[]
+9.3 +8.2 93 +8 +8 тепло 1006.3 999.5
С 2 40 км 9/9 180 м
[]
+9.2 +8.4 95 +8 +8 тепло 1006.0 999.2
С 4 30 км {ливн. осадки, дождь} 9/9 150 м
[]
+9.1 +8.6 97 +6 +6 тепло 1005.5 998.8 +8.1 +9.6
С 3 35 км 9/9 180 м
[]
+9.2 +8.3 94 +7 +7 тепло 1005.5 998.7
С 2 35 км 9/9 120 м
[]
+9.4 +8.8 96 +8 +8 тепло 1005.3 998.6
С 4 29 км 6/6 120 м
[]
+9.6 +8.6 93 +7 +7 тепло 1005.0 998.3
С 3 35 км 10/10 180 м
[]
+9.8 +8.2 90 +7 +7 тепло 1004.8 998.1
С 3 27 км 9/9 180 м
[]
+9.8 +8.5 92 +7 +7 тепло 1004.5 997.7
С 3 20 км 10/10 180 м
[]
+9.8 +8.7 93 +7 +7 тепло 1003.9 997.2
С 4 17 км 10/10 180 м
[]
+9.8 +8.8 93 +7 +7 тепло 1003.5 996.8
С 3 28 км 9/9 210 м
[]
+9.9 +8.6 92 +8 +8 тепло 1003.4 996.7
С 3 21 км 10/10 180 м
[]
+9.9 +8.7 92 +8 +8 тепло 1003.1 996.3
С 3 16 км 9/9 150 м
[]
+9.7 +8.9 95 +7 +7 тепло 1002.8 996.1
С 3 15 км 9/9 150 м
[]
+9.6 +8.9 95 +7 +7 тепло 1003.0 996.3 +9.0 +10.2
Местоположение метеостанции Торсхавн (Дания): широта 62.02 долгота -6.77 высота над уровнем моря 61 м.
В архиве по умолчанию представлена погода в Торсхавне за последнюю неделю. Архивные данные за месяц целиком и за предыдущие месяцы, начиная с января 2011 года, Вы можете получить, выбрав интересующий диапазон дат из раскрывающегося списка и нажав кнопку "Найти!".
*Определитесь, кто Вы:
Внимание! Время в таблицах - всемирное. Для получения местного времени необходимо прибавить поправку, которая равна 1 ч.
Смотрите также архив погоды в соседних городах и на ближайших метеорологических станциях:
Партнеры нашего сайта:      
Пояснения к столбцам:
  • Ветер - указаны скорость ветра в м/с - средняя за 10 мин, порывы в срок и между сроками (в фигурных скобках) и направление, откуда дует ветер: С - северный,
  • СВ - северо-восточный, В - восточный, ЮВ - юго-восточный, Ю - южный, ЮЗ - юго-западный, З - западный, СЗ - северо-западный.
  • Видимость - горизонтальная дальность видимости в метрах или километрах. При видимости от 1 до 10 км при отсутствии осадков обычно наблюдается дымка, при ухудшении видимости до 1 км и менее - туман. В сухую погоду видимость может ухудшаться дымом, пылью или мглою.
  • Явления - указаны атмосферные явления, наблюдавшиеся в срок или в последний час перед сроком; фигурными скобками обозначены явления, наблюдавшиеся между сроками (за 1-3 часа до срока); квадратными скобками обозначены град или гололедные отложения с указанием их диаметра в мм.
  • Облачность - указаны через наклонную черту общая и нижняя облачность в баллах и высота нижней границы облаков в метрах; квадратными скобками обозначены формы облаков: Ci - перистые, Cs - перисто-слоистые, Cc - перисто-кучевые, Ac - высококучевые, As - высокослоистые, Sc - слоисто-кучевые, Ns - слоисто-дождевые, Cu - кучевые, Cb - кучево-дождевые. Подробнее классификацию облаков см. в Атласе облаков (PDF).
  • T - Температура воздуха - температура, измеренная на высоте 2 м над землей.
  • Td - Температура точки росы - температура, при понижении до которой содержащийся в воздухе водяной пар достигнет насыщения.
  • f - Относительная влажность воздуха - влажноcть воздуха, измеренная на высоте 2 м над землей.
  • Te - Эффективная температура - температура, которую ощущает одетый по сезону человек в тени. Характеристика душности погоды. При расчете учитывается влияние влажности воздуха и скорости ветра на теплоощущения человека.
  • Tes - Эффективная температура на солнце - температура, которую ощущает человек, с поправкой на солнечный нагрев. Характеристика знойности погоды. Зависит от высоты солнца над горизонтом, облачности и скорости ветра. Ночью, в пасмурную погоду, а также при ветре 12 м/с и более поправка равна нулю.
  • P - Атмосферное давление - приведенное к уровню моря атмосферное давление.
  • Po - Атмосферное давление - измеренное на уровне метеостанции атмосферное давление.
  • Tmin - Минимальная температура - минимум температуры воздуха на высоте 2 м над землей.
  • Tmax - Максимальная температура - максимум температуры воздуха на высоте 2 м над землей.
  • R - Количество осадков - Количество выпавших осадков за период времени, мм. При наведении курсора мыши на число - период времени, за который выпало указанное количество осадков.
  • R24 - Количество осадков - Количество выпавших осадков за 24 часа, мм.
  • S - Снежный покров - Высота снежного покрова, см. При наведении курсора мыши на число - состояние снежного покрова и степень покрытия местности в баллах.